[[[{"header":{"parameterUnit":"kt","parameterCategory":2,"dx":1,"dy":1,"la1":30.253999710083008,"la2":30.299108505249023,"lo1":-89.0895004272461,"lo2":-89.04439544677734,"nx":28,"ny":28,"refTime":"2022-10-30T21:00:00:Z","depth":0,"parameterNumber":1,"parameterNumberName":"U-component_of_WINDS"},"data":[-3.4091,-3.4094,-3.4047,-3.4031,-3.3985,-3.3965,-3.3943,-3.3909,-3.3869,-3.3841,-3.3816,-3.3767,-3.3708,-3.3667,-3.3638,-3.3616,-3.3608,-3.3647,-3.3616,-3.3485,-3.3464,-3.3443,-3.3439,-3.3646,-3.3646,-3.3758,-3.376,-3.376,-3.4009,-3.3964,-3.394,-3.3884,-3.3863,-3.3798,-3.3748,-3.3735,-3.3719,-3.3669,-3.364,-3.361,-3.358,-3.3505,-3.3467,-3.3469,-3.3436,-3.3463,-3.3462,-3.3454,-3.3313,-3.3309,-3.3491,-3.3491,-3.3491,-3.3491,-3.3491,-3.3491,-3.3847,-3.3851,-3.3787,-3.3759,-3.3717,-3.368,-3.3675,-3.3613,-3.3588,-3.3541,-3.3486,-3.3466,-3.3406,-3.3333,-3.3296,-3.328,-3.324,-3.3253,-3.3257,-3.3262,-3.3277,-3.3128,-3.327,-3.3269,-3.3269,-3.3268,-3.3268,0,-3.3713,-3.3672,-3.3643,-3.3602,-3.3578,-3.3539,-3.3496,-3.3491,-3.3382,-3.3366,-3.3338,-3.3313,-3.3264,-3.3232,-3.3183,-3.3139,-3.3068,-3.3053,-3.3063,-3.3091,-3.3125,-3.311,-3.2884,-3.3049,-3.3047,-3.3045,-3.3044,-3.3043,-3.3548,-3.3556,-3.3462,-3.3449,-3.3412,-3.3391,-3.3368,-3.3271,-3.3251,-3.3182,-3.3189,-3.3155,-3.3121,-3.3084,-3.3008,-3.2971,-3.2935,-3.3005,-3.2928,-3.2957,-3.2939,-3.294,-3.2942,-3.3021,-3.3024,-3.3026,-3.3028,0,-3.3461,-3.3376,-3.3371,-3.3275,-3.3252,-3.3265,-3.3183,-3.3181,-3.3119,-3.3108,-3.3099,-3.3001,-3.2974,-3.2885,-3.2835,-3.279,-3.2815,-3.278,-3.2838,-3.2826,-3.2882,-3.2879,-3.3069,-3.309,-3.2873,-3.2875,-3.2877,0,-3.3287,-3.3299,-3.3172,-3.3173,-3.3185,-3.3085,-3.31,-3.3046,-3.2988,-3.2978,-3.2881,-3.2873,-3.276,-3.274,-3.2673,-3.2677,-3.2667,-3.2633,-3.2615,-3.2642,-3.2647,-3.263,-3.2621,-3.2571,-3.257,-3.2569,-3.2568,0,-3.3159,-3.3103,-3.3104,-3.3077,-3.2973,-3.2976,-3.2934,-3.2866,-3.2843,-3.2799,-3.2784,-3.2739,-3.2715,-3.2683,-3.2597,-3.255,-3.2599,-3.2515,-3.2564,-3.2567,-3.2579,-3.258,-3.2771,-3.2567,-3.2567,-3.2566,-3.2566,0,-3.3004,-3.296,-3.2973,-3.2885,-3.2873,-3.2873,-3.2822,-3.28,-3.2736,-3.2693,-3.2657,-3.258,-3.2572,-3.2497,-3.2487,-3.245,-3.2433,-3.2398,-3.24,-3.2394,-3.2312,-3.2434,-3.2623,-3.2641,-3.2391,-3.2389,-3.2388,0,-3.2884,-3.2871,-3.2783,-3.2796,-3.2777,-3.2668,-3.2665,-3.261,-3.2551,-3.2528,-3.2463,-3.2435,-3.2359,-3.2338,-3.2345,-3.2276,-3.2325,-3.2267,-3.2237,-3.2238,-3.2261,-3.2433,-3.2484,-3.2592,-3.2368,-3.237,-3.2371,0,-3.2778,-3.2648,-3.2656,-3.2621,-3.2529,-3.2511,-3.2508,-3.2457,-3.2447,-3.2392,-3.2388,-3.2345,-3.2287,-3.2252,-3.2182,-3.2194,-3.2289,-3.2129,-3.2125,-3.2163,-3.2348,-3.2398,-3.2416,-3.2241,-3.2243,-3.2245,-3.2355,0,-3.2569,-3.2548,-3.2565,-3.2487,-3.2458,-3.2459,-3.236,-3.2343,-3.2279,-3.2216,-3.2206,-3.2132,-3.2079,-3.2073,-3.2009,-3.2063,-3.204,-3.1976,-3.1895,-3.2009,-3.2043,-3.2057,-3.1853,-3.185,-3.1848,-3.1846,0,0,-3.2476,-3.2443,-3.2342,-3.2332,-3.2302,-3.2185,-3.2195,-3.2151,-3.2064,-3.2047,-3.2001,-3.193,-3.1871,-3.1869,-3.1896,-3.1873,-3.1874,-3.1836,-3.1955,-3.1968,-3.1979,-3.2017,-3.2033,-3.1841,-3.184,-3.1839,-3.1839,0,-3.2378,-3.2319,-3.2328,-3.2279,-3.22,-3.2131,-3.2134,-3.2034,-3.1993,-3.198,-3.1882,-3.1863,-3.1806,-3.1758,-3.1726,-3.1835,-3.1762,-3.1826,-3.1919,-3.1933,-3.1949,-3.1963,-3.2004,-3.202,-3.1832,-3.1833,-3.1833,0,-3.2257,-3.2184,-3.2177,-3.2098,-3.2045,-3.2026,-3.1917,-3.19,-3.1885,-3.1754,-3.1742,-3.1687,-3.1612,-3.1621,-3.162,-3.1578,-3.1666,-3.1618,-3.1631,-3.1629,-3.1637,-3.1656,-3.1674,-3.1447,-3.1446,-3.1445,0,0,-3.2186,-3.2164,-3.2052,-3.2069,-3.2042,-3.1938,-3.1916,-3.1848,-3.1783,-3.1757,-3.1683,-3.1624,-3.1589,-3.1569,-3.1531,-3.1554,-3.1531,-3.1575,-3.1593,-3.1608,-3.1614,-3.1627,-3.1646,-3.1442,-3.1442,-3.1442,0,0,-3.2151,-3.2022,-3.1967,-3.1974,-3.1916,-3.1805,-3.182,-3.1751,-3.1705,-3.1694,-3.1577,-3.1556,-3.1561,-3.151,-3.1476,-3.15,-3.1422,-3.1428,-3.1533,-3.1555,-3.1572,-3.1585,-3.1352,0,0,0,0,0,-3.1998,-3.2038,-3.199,-3.1976,-3.1873,-3.1833,-3.1819,-3.1723,-3.1671,-3.1686,-3.1614,-3.1534,-3.1468,-3.1435,-3.1423,-3.1462,-3.1397,-3.1405,-3.1413,-3.1554,-3.1577,-3.1597,0,0,0,0,0,0,-3.1991,-3.1974,-3.1989,-3.1882,-3.1857,-3.183,-3.1721,-3.1696,-3.1667,-3.1653,-3.1551,-3.1531,-3.1449,-3.1435,-3.1425,-3.1464,-3.1355,-3.14,-3.1407,-3.1413,-3.1562,-3.1581,-3.1598,0,0,0,0,0,-3.1986,-3.1972,-3.1832,-3.188,-3.1859,-3.1743,-3.1718,-3.1697,-3.1673,-3.1559,-3.1537,-3.1603,-3.1453,-3.1438,-3.1429,-3.1471,-3.1361,-3.1358,-3.1405,-3.141,-3.1415,-3.1571,0,0,0,0,0,0,-3.1981,-3.1952,-3.1825,-3.1815,-3.1857,-3.1742,-3.1721,-3.1698,-3.1579,-3.1557,-3.1605,-3.1595,-3.1456,-3.1444,-3.1433,-3.1479,-3.1366,-3.1362,-3.136,-3.1409,-3.1413,-3.1417,0,0,0,0,0,0,-3.1958,-3.1944,-3.182,-3.1796,-3.1782,-3.1742,-3.1723,-3.17,-3.1579,-3.1631,-3.1619,-3.1602,-3.1472,-3.1448,-3.1439,-3.1407,-3.137,-3.1366,-3.1364,-3.1363,-3.1412,-3.1415,0,0,0,0,0,0,-3.1951,-3.1938,-3.1798,-3.1787,-3.1775,-3.1657,-3.172,-3.162,-3.1559,-3.1638,-3.1551,-3.1547,-3.1479,-3.1467,-3.1444,-3.1417,-3.1409,-3.1369,-3.1367,-3.1366,-3.1365,0,0,0,0,0,0,0,-3.1944,-3.2049,-3.1884,-3.178,-3.1769,-3.1724,-3.1721,-3.1718,-3.1558,-3.1555,-3.1551,-3.1548,-3.1387,-3.1384,-3.1381,-3.1424,0,0,-3.137,-3.1368,0,0,0,0,0,0,0,0,-3.2052,-3.205,-3.1884,-3.1882,-3.188,-3.1724,-3.1721,-3.1719,-3.1557,-3.1555,-3.1552,-3.155,-3.1387,-3.1384,-3.1381,0,0,0,0,0,0,0,0,0,0,0,0,0,0,0,-3.1884,-3.1882,0,-3.1723,-3.1721,-3.172,-3.1557,-3.1555,-3.1553,-3.1551,-3.1386,-3.1383,-3.1381,0,0,0,0,0,0,0,0,0,0,0,0,0,0,0,0,0,0,0,0,0,0,0,0,0,0,0,0,0,0,0,0,0,0,0,0,0,0,0,0,0,0,0,0,0,0,0,0,0,0,0,0,0,0,0,0,0,0,0,0,0,0,0,0,0,0,0,0,0]}],[{"header":{"parameterUnit":"kt","parameterCategory":2,"dx":1,"dy":1,"la1":30.253999710083008,"la2":30.299108505249023,"lo1":-89.0895004272461,"lo2":-89.04439544677734,"nx":28,"ny":28,"refTime":"2022-10-30T21:00:00:Z","depth":0,"parameterNumber":2,"parameterNumberName":"V-component_of_WINDS"},"data":[-4.1994,-4.2064,-4.2061,-4.2139,-4.2149,-4.2201,-4.2218,-4.224,-4.2256,-4.2317,-4.2351,-4.2353,-4.2366,-4.2404,-4.2439,-4.2439,-4.2455,-4.2483,-4.2478,-4.2356,-4.2339,-4.2323,-4.2307,-4.2486,-4.2487,-4.2606,-4.2607,-4.2608,-4.1909,-4.192,-4.196,-4.1996,-4.203,-4.2002,-4.2027,-4.2058,-4.2104,-4.2123,-4.2156,-4.2208,-4.2248,-4.225,-4.2288,-4.2319,-4.2307,-4.2329,-4.2328,-4.233,-4.22,-4.2183,-4.2339,-4.2339,-4.2339,-4.2339,-4.2339,-4.2339,-4.1753,-4.1795,-4.1815,-4.1857,-4.1874,-4.1898,-4.1936,-4.1938,-4.1975,-4.2014,-4.2001,-4.2052,-4.2069,-4.211,-4.2122,-4.2162,-4.2135,-4.2158,-4.2164,-4.2171,-4.218,-4.2013,-4.2167,-4.2167,-4.2166,-4.2166,-4.2165,0,-4.1638,-4.1633,-4.167,-4.1707,-4.1737,-4.1764,-4.1788,-4.1811,-4.1794,-4.1825,-4.187,-4.1895,-4.1942,-4.1983,-4.2015,-4.2022,-4.1994,-4.199,-4.2006,-4.2015,-4.202,-4.202,-4.1809,-4.1985,-4.1984,-4.1982,-4.1982,-4.1981,-4.1483,-4.153,-4.1548,-4.1574,-4.1586,-4.1628,-4.1652,-4.1634,-4.166,-4.1685,-4.1721,-4.1761,-4.1793,-4.1863,-4.1861,-4.1896,-4.1883,-4.1951,-4.1888,-4.1895,-4.1886,-4.1885,-4.189,-4.1964,-4.1966,-4.1968,-4.1969,0,-4.1396,-4.1388,-4.146,-4.1471,-4.1476,-4.1526,-4.1535,-4.1574,-4.157,-4.1623,-4.1634,-4.1628,-4.167,-4.1658,-4.1702,-4.1695,-4.1778,-4.1763,-4.1773,-4.177,-4.1831,-4.1826,-4.2028,-4.2054,-4.1866,-4.1868,-4.1869,0,-4.126,-4.1323,-4.1308,-4.135,-4.1418,-4.1398,-4.1466,-4.1469,-4.1483,-4.1525,-4.149,-4.153,-4.1506,-4.1544,-4.1532,-4.1597,-4.1604,-4.1603,-4.1599,-4.1607,-4.1608,-4.1621,-4.1613,-4.1586,-4.1585,-4.1584,-4.1583,0,-4.1127,-4.119,-4.1258,-4.1271,-4.1288,-4.132,-4.1328,-4.1342,-4.1365,-4.1392,-4.1407,-4.1439,-4.1457,-4.1483,-4.1467,-4.1425,-4.1545,-4.1484,-4.1544,-4.1545,-4.1572,-4.1571,-4.1752,-4.1582,-4.1582,-4.1581,-4.1581,0,-4.1016,-4.1045,-4.1144,-4.1157,-4.1174,-4.1218,-4.125,-4.1284,-4.1301,-4.1297,-4.1317,-4.1292,-4.1346,-4.1287,-4.1362,-4.1312,-4.1331,-4.1334,-4.1338,-4.1343,-4.1277,-4.1384,-4.1556,-4.1574,-4.1347,-4.1345,-4.1343,0,-4.0866,-4.0962,-4.0946,-4.1038,-4.1081,-4.1041,-4.1088,-4.1105,-4.1103,-4.1138,-4.1134,-4.1174,-4.1126,-4.1137,-4.1175,-4.1173,-4.1238,-4.1164,-4.1215,-4.1217,-4.1215,-4.1372,-4.1402,-4.1519,-4.1318,-4.1321,-4.1322,0,-4.0749,-4.0769,-4.0786,-4.0801,-4.0818,-4.0853,-4.0907,-4.0942,-4.0967,-4.0987,-4.1032,-4.1085,-4.1053,-4.107,-4.1052,-4.1093,-4.1194,-4.1051,-4.1051,-4.1079,-4.1303,-4.1332,-4.1351,-4.1173,-4.1176,-4.1178,-4.1302,0,-4.0588,-4.0634,-4.068,-4.0711,-4.0735,-4.0791,-4.0778,-4.0805,-4.0786,-4.0782,-4.0847,-4.0854,-4.0888,-4.0905,-4.0886,-4.0983,-4.0965,-4.0929,-4.087,-4.0973,-4.1014,-4.103,-4.0811,-4.0809,-4.0808,-4.0807,0,0,-4.0447,-4.0512,-4.0491,-4.0542,-4.0562,-4.0518,-4.058,-4.0592,-4.062,-4.0634,-4.0601,-4.0678,-4.0685,-4.0765,-4.0795,-4.0808,-4.0824,-4.0788,-4.0924,-4.0937,-4.0949,-4.0993,-4.101,-4.0804,-4.0803,-4.0803,-4.0802,0,-4.0386,-4.0396,-4.0457,-4.047,-4.0488,-4.048,-4.0495,-4.0505,-4.0505,-4.0567,-4.0529,-4.0565,-4.0626,-4.0639,-4.0654,-4.0778,-4.0747,-4.0789,-4.0862,-4.0909,-4.0924,-4.0937,-4.0984,-4.1,-4.0798,-4.0799,-4.0799,0,-4.027,-4.0277,-4.0305,-4.0345,-4.0356,-4.04,-4.0336,-4.0383,-4.0415,-4.0362,-4.0425,-4.0426,-4.0442,-4.0518,-4.0552,-4.0523,-4.0678,-4.0625,-4.0634,-4.0638,-4.0682,-4.07,-4.0717,-4.0503,-4.0502,-4.0501,0,0,-4.0218,-4.026,-4.0261,-4.0331,-4.0341,-4.033,-4.0351,-4.0334,-4.0349,-4.0356,-4.0357,-4.0373,-4.0408,-4.0431,-4.0462,-4.0548,-4.055,-4.0589,-4.0603,-4.0615,-4.0624,-4.0672,-4.069,-4.0497,-4.0497,-4.0497,0,0,-4.0193,-4.0198,-4.0176,-4.0256,-4.0273,-4.0278,-4.0321,-4.0294,-4.0321,-4.0313,-4.0285,-4.0288,-4.0359,-4.0361,-4.0315,-4.0442,-4.0384,-4.0395,-4.0438,-4.0455,-4.0469,-4.0467,-4.0249,0,0,0,0,0,-4.0123,-4.0197,-4.0178,-4.0189,-4.0239,-4.0289,-4.0295,-4.0275,-4.0235,-4.027,-4.0267,-4.0231,-4.0331,-4.0289,-4.03,-4.0352,-4.0451,-4.0459,-4.0467,-4.0542,-4.056,-4.0576,0,0,0,0,0,0,-4.0127,-4.0141,-4.0176,-4.0184,-4.0195,-4.0286,-4.0215,-4.0211,-4.0231,-4.0223,-4.0233,-4.0232,-4.0214,-4.0282,-4.0292,-4.0342,-4.0246,-4.0454,-4.0461,-4.0467,-4.0548,-4.0563,-4.0576,0,0,0,0,0,-4.013,-4.0142,-4.0227,-4.0183,-4.0192,-4.0184,-4.0212,-4.0208,-4.0223,-4.0218,-4.0215,-4.0206,-4.0216,-4.0223,-4.0288,-4.0338,-4.0238,-4.0242,-4.0458,-4.0464,-4.0469,-4.0556,0,0,0,0,0,0,-4.0133,-4.0138,-4.0228,-4.023,-4.0153,-4.0178,-4.0181,-4.0206,-4.0215,-4.0214,-4.0189,-4.0183,-4.0219,-4.0224,-4.0229,-4.0338,-4.0233,-4.0237,-4.0239,-4.0463,-4.0467,-4.0471,0,0,0,0,0,0,-4.0132,-4.014,-4.0229,-4.0192,-4.019,-4.0173,-4.0176,-4.0227,-4.0216,-4.0185,-4.0181,-4.0186,-4.021,-4.0224,-4.0228,-4.0309,-4.0228,-4.0232,-4.0235,-4.0236,-4.0466,-4.047,0,0,0,0,0,0,-4.0135,-4.0142,-4.0192,-4.019,-4.0188,-4.021,-4.0217,-4.0269,-4.0186,-4.0186,-4.0178,-4.0174,-4.0211,-4.0215,-4.0228,-4.0307,-4.0308,-4.0228,-4.0231,-4.0233,-4.0234,0,0,0,0,0,0,0,-4.0138,-4.0095,-4.0216,-4.0188,-4.0186,-4.0249,-4.025,-4.0251,-4.0185,-4.0182,-4.0179,-4.0176,-4.0207,-4.0211,-4.0215,-4.0306,0,0,-4.0228,-4.023,0,0,0,0,0,0,0,0,-4.0092,-4.0095,-4.0216,-4.0216,-4.0217,-4.0249,-4.025,-4.025,-4.0185,-4.0182,-4.018,-4.0177,-4.0208,-4.0211,-4.0215,0,0,0,0,0,0,0,0,0,0,0,0,0,0,0,-4.0216,-4.0216,0,-4.025,-4.025,-4.025,-4.0185,-4.0182,-4.018,-4.0178,-4.0209,-4.0211,-4.0214,0,0,0,0,0,0,0,0,0,0,0,0,0,0,0,0,0,0,0,0,0,0,0,0,0,0,0,0,0,0,0,0,0,0,0,0,0,0,0,0,0,0,0,0,0,0,0,0,0,0,0,0,0,0,0,0,0,0,0,0,0,0,0,0,0,0,0,0,0]}]]]